sat.trackr.live / text

‹ back to catalog

STARLINK-30431

NORAD 57852 · 2023-141N

PAYLOAD ACTIVE UNKNOWN

§ Identity

Operator
Country
US
Launch date
2023-09-12
Launch site
AFWTR
Launch vehicle
Mass (kg)
RCS (m²)

Purposes: comms

External: N2YO · Heavens-Above · Gunter

§ Orbital elements

Epoch: 2026-09-19T23:00:09.391392Z

Period
93.85 min
Inclination
53.1604°
Eccentricity
0.0001176
Mean motion
15.34386852 rev/d
Perigee alt
461.9 km
Apogee alt
463.5 km
Semi-major
6,840.9 km
B*
2.9553e-5
RAAN
100.1926°
Arg perigee
80.2731°
Mean anomaly
279.8405°
Rev number
17,008

§ Raw data

STARLINK-304311 57852U 23141N   26262.95844203  .00000622  00000+0  29553-4 0  99982 57852  53.1604 100.1926 0001176  80.2731 279.8405 15.34386852170089

JSON: /api/v1/satellites/57852 · /tle

For live sub-satellite position, see the globe view (requires WebGL).

§ Visibility from observer

Set your observer location to see the next 7 days of passes ≥ 10°. The values pass through the URL so the page stays shareable.

No JS? Fill the form by hand. The geolocation button needs JavaScript.